, MT

(GMT )
West Yellowstone

Weather History for KWYS - October, 2012

Change the Weather History Date:

Tuesday, October 23, 2012

  Actual Average Record
Temperature  
Mean Temperature 28 °F -  
Max Temperature 33 °F 46 °F 59 °F (2013)
Min Temperature 24 °F 20 °F 17 °F (2013)
Degree Days  
Heating Degree Days 36    
Moisture  
Dew Point -    
Average Humidity    
Maximum Humidity    
Minimum Humidity    
Precipitation  
Precipitation 0.05 in - - ()
Sea Level Pressure  
Sea Level Pressure 29.79 in    
Wind  
Wind Speed 15 mph (SW)    
Max Wind Speed 23 mph    
Max Gust Speed 34 mph    
Visibility 5 miles    
Events Rain , Snow    
Averages and records for this station are not official NWS values.
T = Trace of Precipitation, MM = Missing Value Source: NWS Daily Summary

Daily Weather History Graph

Daily Weather History Graph

Search for Another Location

Airport or City:

Trip Planner

Search our weather history database for the weather conditions in past years. The results will help you decide how hot, cold, wet, or windy it might be!

Date:

Astronomy

Oct. 23, 2012 Rise Set
Actual Time 7:50 AM MDT 6:25 PM MDT
Civil Twilight 7:21 AM MDT 6:55 PM MDT
Nautical Twilight 6:47 AM MDT 7:29 PM MDT
Astronomical Twilight 6:13 AM MDT 8:03 PM MDT
Moon 3:24 PM MDT (10/23) 1:32 AM MDT (10/23)
Length of Visible Light 11h 34m
Length of Day
10h 34m
Waxing Gibbous, 67% of the Moon is Illuminated
Oct 23
Waxing Gibbous
Oct 29
Full
Nov 6
Last Quarter
Nov 13
New
Nov 20
First Quarter

Hourly Weather History & Observations

Time (MDT) Temp. Windchill Dew Point Humidity Pressure Visibility Wind Dir Wind Speed Gust Speed Precip Events Conditions
12:10 AM 33.8 °F 23.5 °F - N/A% 29.66 in 5.0 mi SSW 16.1 mph 21.9 mph N/A Rain Light Rain
12:30 AM 32.0 °F 22.1 °F - N/A% 29.67 in 3.0 mi SSW 13.8 mph 20.7 mph N/A Rain Light Rain
12:50 AM 32.0 °F 20.8 °F - N/A% 29.68 in 1.5 mi SSW 17.3 mph 26.5 mph N/A Rain Light Rain
1:10 AM 32.0 °F 19.8 °F - N/A% 29.69 in 1.2 mi SSW 20.7 mph 29.9 mph 0.01 in Snow Light Snow
1:30 AM 32.0 °F 21.2 °F - N/A% 29.70 in 3.0 mi SSW 16.1 mph 23.0 mph 0.01 in Rain Light Rain
2:10 AM 32.0 °F 20.8 °F - N/A% 29.71 in 1.5 mi SSW 17.3 mph 23.0 mph N/A Rain Light Rain
2:30 AM 32.0 °F 20.8 °F - N/A% 29.71 in 2.5 mi South 17.3 mph 25.3 mph N/A Rain Light Rain
2:50 AM 32.0 °F 23.6 °F - N/A% 29.72 in 5.0 mi SW 10.4 mph 20.7 mph N/A   Haze
3:10 AM 32.0 °F 22.1 °F - N/A% 29.73 in 8.0 mi SW 13.8 mph 24.2 mph N/A   Overcast
3:30 AM 32.0 °F 22.1 °F - N/A% 29.72 in 5.0 mi SSW 13.8 mph 17.3 mph N/A   Overcast
3:50 AM 32.0 °F 22.5 °F - N/A% 29.71 in 10.0 mi South 12.7 mph 18.4 mph N/A   Overcast
4:10 AM 32.0 °F 23.6 °F - N/A% 29.70 in 4.0 mi SSW 10.4 mph 20.7 mph N/A Rain Light Rain
4:30 AM 30.2 °F 24.3 °F - N/A% 29.69 in 10.0 mi WSW 5.8 mph - N/A   Overcast
4:50 AM 30.2 °F 23.4 °F - N/A% 29.70 in 10.0 mi WSW 6.9 mph - N/A   Overcast
5:30 AM 30.2 °F 20.2 °F - N/A% 29.73 in 10.0 mi SW 12.7 mph 20.7 mph N/A   Overcast
5:50 AM 30.2 °F 19.8 °F - N/A% 29.74 in 9.0 mi SSW 13.8 mph 19.6 mph N/A   Overcast
6:10 AM 30.2 °F 19.8 °F - N/A% 29.74 in 3.0 mi SSW 13.8 mph 20.7 mph N/A   Overcast
6:30 AM 30.2 °F 20.8 °F - N/A% 29.75 in 5.0 mi SSW 11.5 mph - N/A   Mostly Cloudy
6:50 AM 30.2 °F 20.2 °F - N/A% 29.76 in 1.0 mi SW 12.7 mph 24.2 mph N/A   Overcast
7:10 AM 30.2 °F 18.1 °F - N/A% 29.76 in 4.0 mi SSW 18.4 mph 25.3 mph N/A Rain Light Freezing Rain
7:30 AM 30.2 °F 18.9 °F - N/A% 29.75 in 8.0 mi SSW 16.1 mph 26.5 mph N/A   Overcast
7:50 AM 28.4 °F 16.6 °F - N/A% 29.76 in 1.0 mi SW 16.1 mph 27.6 mph N/A Rain Light Freezing Rain
8:10 AM 28.4 °F 17.0 °F - N/A% 29.76 in 0.5 mi SSW 15.0 mph 23.0 mph N/A Rain Light Freezing Rain
8:30 AM 28.4 °F 18.0 °F - N/A% 29.77 in 0.8 mi SW 12.7 mph - N/A Snow Light Snow
8:50 AM 28.4 °F 14.4 °F - N/A% 29.77 in 0.8 mi SSW 23.0 mph 29.9 mph 0.01 in Snow Light Snow
9:10 AM 28.4 °F 15.1 °F - N/A% 29.77 in 1.0 mi SW 20.7 mph 26.5 mph N/A Snow Light Snow
9:50 AM 30.2 °F 19.3 °F - N/A% 29.79 in 9.0 mi SW 15.0 mph 26.5 mph N/A   Mostly Cloudy
10:10 AM 30.2 °F 20.8 °F - N/A% 29.79 in 2.0 mi SW 11.5 mph 24.2 mph N/A Snow Light Snow
10:30 AM 28.4 °F 14.7 °F - N/A% 29.78 in 1.0 mi SSW 21.9 mph 29.9 mph N/A Snow Light Snow
10:50 AM 28.4 °F 16.2 °F - N/A% 29.80 in 1.0 mi SW 17.3 mph 23.0 mph N/A Snow Light Snow
11:10 AM 28.4 °F 19.1 °F - N/A% 29.81 in 0.5 mi SW 10.4 mph - 0.02 in Snow Snow
11:30 AM 30.2 °F 19.3 °F - N/A% 29.81 in 9.0 mi SW 15.0 mph 19.6 mph 0.02 in   Mostly Cloudy
11:50 AM 30.2 °F 22.6 °F - N/A% 29.81 in 8.0 mi SW 8.1 mph - 0.02 in Rain Light Freezing Rain
12:10 PM 32.0 °F 21.2 °F - N/A% 29.79 in 5.0 mi SSW 16.1 mph 20.7 mph N/A   Mostly Cloudy
12:30 PM 30.2 °F 18.5 °F - N/A% 29.81 in 1.2 mi SW 17.3 mph 21.9 mph N/A Rain Light Freezing Rain
12:50 PM 30.2 °F 18.9 °F - N/A% 29.80 in 1.0 mi SSW 16.1 mph 23.0 mph N/A Snow Light Snow
1:10 PM 32.0 °F 21.2 °F - N/A% 29.79 in 2.5 mi SSW 16.1 mph - N/A   Partly Cloudy
1:30 PM 32.0 °F 22.5 °F - N/A% 29.78 in 2.0 mi SSW 12.7 mph 21.9 mph N/A Rain Light Rain
1:50 PM 32.0 °F 21.6 °F - N/A% 29.78 in 3.0 mi SSW 15.0 mph 21.9 mph N/A   Partly Cloudy
2:10 PM 30.2 °F 20.8 °F - N/A% 29.78 in 0.5 mi SW 11.5 mph - N/A Snow Snow
2:30 PM 30.2 °F 20.8 °F - N/A% 29.78 in 1.0 mi SSW 11.5 mph 19.6 mph N/A Snow Light Snow
2:50 PM 30.2 °F 18.9 °F - N/A% 29.79 in 0.2 mi SW 16.1 mph 24.2 mph 0.01 in Snow Heavy Snow
3:10 PM 32.0 °F 19.5 °F - N/A% 29.78 in 4.0 mi SW 21.9 mph 28.8 mph N/A Rain Light Rain
3:30 PM 30.2 °F 18.1 °F - N/A% 29.79 in 10.0 mi SW 18.4 mph 27.6 mph N/A   Mostly Cloudy
3:50 PM 30.2 °F 18.9 °F - N/A% 29.80 in 0.8 mi SSW 16.1 mph 20.7 mph N/A Rain Light Freezing Rain
4:10 PM 30.2 °F 16.8 °F - N/A% 29.79 in 1.0 mi SSW 23.0 mph 28.8 mph N/A   Mostly Cloudy
4:30 PM 30.2 °F 19.3 °F - N/A% 29.80 in 1.2 mi SW 15.0 mph 27.6 mph N/A Snow Light Snow
4:50 PM 30.2 °F 17.8 °F - N/A% 29.80 in 7.0 mi SSW 19.6 mph 34.5 mph N/A   Scattered Clouds
5:10 PM 30.2 °F 18.1 °F - N/A% 29.81 in 7.0 mi SW 18.4 mph 29.9 mph N/A   Mostly Cloudy
5:30 PM 30.2 °F 19.3 °F - N/A% 29.83 in 10.0 mi SW 15.0 mph 21.9 mph N/A   Mostly Cloudy
5:50 PM 30.2 °F 21.3 °F - N/A% 29.84 in 10.0 mi SW 10.4 mph 20.7 mph N/A   Overcast
6:10 PM 28.4 °F 18.5 °F - N/A% 29.84 in 10.0 mi SSW 11.5 mph 25.3 mph N/A   Mostly Cloudy
6:30 PM 28.4 °F 16.2 °F - N/A% 29.84 in 10.0 mi SSW 17.3 mph 25.3 mph N/A   Mostly Cloudy
6:50 PM 28.4 °F 16.2 °F - N/A% 29.84 in 5.0 mi SSW 17.3 mph 25.3 mph N/A   Mostly Cloudy
7:10 PM 28.4 °F 15.1 °F - N/A% 29.85 in 4.0 mi SSW 20.7 mph 32.2 mph N/A   Mostly Cloudy
7:30 PM 28.4 °F 15.8 °F - N/A% 29.86 in 6.0 mi SSW 18.4 mph 27.6 mph N/A   Haze
7:50 PM 28.4 °F 15.8 °F - N/A% 29.86 in 4.0 mi SSW 18.4 mph 27.6 mph N/A   Haze
8:10 PM 28.4 °F 15.1 °F - N/A% 29.87 in 4.0 mi SSW 20.7 mph 29.9 mph N/A Rain Light Freezing Rain
8:30 PM 28.4 °F 15.8 °F - N/A% 29.88 in 9.0 mi SW 18.4 mph 26.5 mph N/A   Overcast
8:50 PM 28.4 °F 15.1 °F - N/A% 29.88 in 4.0 mi SW 20.7 mph 28.8 mph N/A Snow Light Snow
9:10 PM 26.6 °F 15.2 °F - N/A% 29.90 in 7.0 mi SW 13.8 mph 21.9 mph N/A Snow Light Snow
9:30 PM 26.6 °F 18.2 °F - N/A% 29.90 in 10.0 mi SW 8.1 mph 17.3 mph N/A   Mostly Cloudy
9:50 PM 26.6 °F 16.2 °F - N/A% 29.90 in 9.0 mi SW 11.5 mph - N/A   Mostly Cloudy
10:10 PM 26.6 °F - - N/A% 29.90 in 10.0 mi Calm Calm - N/A   Mostly Cloudy
10:30 PM 26.6 °F - - N/A% 29.91 in 10.0 mi Calm Calm - N/A   Mostly Cloudy
10:50 PM 26.6 °F 19.1 °F - N/A% 29.90 in 10.0 mi SW 6.9 mph - N/A   Mostly Cloudy
11:10 PM 24.8 °F 16.1 °F - N/A% 29.91 in 10.0 mi SW 8.1 mph - N/A   Partly Cloudy
11:30 PM 24.8 °F 16.1 °F - N/A% 29.91 in 10.0 mi SW 8.1 mph - N/A   Partly Cloudy
11:50 PM 24.8 °F 16.1 °F - N/A% 29.91 in 10.0 mi SW 8.1 mph - N/A   Clear